Time,TemperatureF,DewpointF,PressureIn,WindDirection,WindDirectionDegrees,WindSpeedMPH,WindSpeedGustMPH,Humidity,HourlyPrecipIn,Conditions,Clouds,dailyrainin,SoftwareType,DateUTC
2013-01-04 00:00:00,53.4,24.2,30.17,NNW,342,1.0,1.0,32,0.00,,,0.00,Wunderground v.1.15,2013-01-04 08:00:00,
2013-01-04 00:10:00,53.0,24.6,30.17,South,171,0.0,1.0,33,0.00,,,0.00,Wunderground v.1.15,2013-01-04 08:10:00,
2013-01-04 00:15:00,53.1,24.0,30.17,NNW,342,0.0,1.0,32,0.00,,,0.00,Wunderground v.1.15,2013-01-04 08:15:00,
2013-01-04 00:20:00,53.0,24.6,30.17,NNW,345,1.0,1.0,33,0.00,,,0.00,Wunderground v.1.15,2013-01-04 08:20:00,
2013-01-04 00:25:00,52.9,24.5,30.16,NW,324,1.0,3.0,33,0.00,,,0.00,Wunderground v.1.15,2013-01-04 08:25:00,
2013-01-04 00:30:00,52.9,25.3,30.16,North,354,1.0,1.0,34,0.00,,,0.00,Wunderground v.1.15,2013-01-04 08:30:00,
2013-01-04 00:35:00,52.8,25.2,30.16,NNW,332,1.0,1.0,34,0.00,,,0.00,Wunderground v.1.15,2013-01-04 08:35:00,
2013-01-04 00:45:00,52.6,25.0,30.17,NNE,18,0.0,0.0,34,0.00,,,0.00,Wunderground v.1.15,2013-01-04 08:45:00,
2013-01-04 00:50:00,52.5,25.6,30.17,NNW,342,0.0,0.0,35,0.00,,,0.00,Wunderground v.1.15,2013-01-04 08:50:00,
2013-01-04 00:55:00,52.5,24.9,30.17,NE,56,0.0,1.0,34,0.00,,,0.00,Wunderground v.1.15,2013-01-04 08:55:00,
2013-01-04 01:00:00,52.7,25.1,30.17,NNW,346,0.0,0.0,34,0.00,,,0.00,Wunderground v.1.15,2013-01-04 09:00:00,
2013-01-04 01:10:00,52.8,25.2,30.17,NNW,338,1.0,1.0,34,0.00,,,0.00,Wunderground v.1.15,2013-01-04 09:10:00,
2013-01-04 01:20:00,52.5,25.6,30.17,NW,314,0.0,3.0,35,0.00,,,0.00,Wunderground v.1.15,2013-01-04 09:20:00,
2013-01-04 01:25:00,52.6,25.7,30.17,North,9,1.0,3.0,35,0.00,,,0.00,Wunderground v.1.15,2013-01-04 09:25:00,
2013-01-04 01:30:00,52.5,25.6,30.17,NW,312,1.0,1.0,35,0.00,,,0.00,Wunderground v.1.15,2013-01-04 09:30:00,
2013-01-04 01:35:00,52.5,26.3,30.17,NW,315,0.0,1.0,36,0.00,,,0.00,Wunderground v.1.15,2013-01-04 09:35:00,
2013-01-04 01:40:00,52.4,25.5,30.16,SSW,204,0.0,1.0,35,0.00,,,0.00,Wunderground v.1.15,2013-01-04 09:40:00,
2013-01-04 01:45:00,52.4,25.5,30.16,SE,140,1.0,1.0,35,0.00,,,0.00,Wunderground v.1.15,2013-01-04 09:45:00,
2013-01-04 01:50:00,52.5,25.6,30.16,NNW,328,0.0,2.0,35,0.00,,,0.00,Wunderground v.1.15,2013-01-04 09:50:00,
2013-01-04 02:00:00,52.3,25.4,30.17,NW,312,0.0,0.0,35,0.00,,,0.00,Wunderground v.1.15,2013-01-04 10:00:00,
2013-01-04 02:10:00,52.0,25.2,30.16,NNW,329,0.0,2.0,35,0.00,,,0.00,Wunderground v.1.15,2013-01-04 10:10:00,
2013-01-04 02:20:00,52.2,24.6,30.17,NW,319,1.0,1.0,34,0.00,,,0.00,Wunderground v.1.15,2013-01-04 10:20:00,
2013-01-04 02:25:00,52.1,24.6,30.17,NNE,15,1.0,1.0,34,0.00,,,0.00,Wunderground v.1.15,2013-01-04 10:25:00,
2013-01-04 02:30:00,51.8,25.7,30.17,North,5,0.0,0.0,36,0.00,,,0.00,Wunderground v.1.15,2013-01-04 10:30:00,
2013-01-04 02:40:00,51.6,24.8,30.17,North,4,1.0,1.0,35,0.00,,,0.00,Wunderground v.1.15,2013-01-04 10:40:00,
2013-01-04 02:45:00,51.3,24.5,30.17,WNW,288,1.0,1.0,35,0.00,,,0.00,Wunderground v.1.15,2013-01-04 10:45:00,
2013-01-04 02:55:00,51.0,24.3,30.17,SE,139,0.0,0.0,35,0.00,,,0.00,Wunderground v.1.15,2013-01-04 10:55:00,
2013-01-04 03:00:00,51.1,25.7,30.16,NNW,330,0.0,1.0,37,0.00,,,0.00,Wunderground v.1.15,2013-01-04 11:00:00,
2013-01-04 03:10:00,51.0,25.6,30.16,NW,309,0.0,0.0,37,0.00,,,0.00,Wunderground v.1.15,2013-01-04 11:10:00,
2013-01-04 03:15:00,51.0,25.0,30.16,ENE,74,0.0,1.0,36,0.00,,,0.00,Wunderground v.1.15,2013-01-04 11:15:00,
2013-01-04 03:20:00,51.0,24.3,30.16,SE,124,0.0,0.0,35,0.00,,,0.00,Wunderground v.1.15,2013-01-04 11:20:00,
2013-01-04 03:25:00,51.0,25.0,30.17,NW,324,0.0,0.0,36,0.00,,,0.00,Wunderground v.1.15,2013-01-04 11:25:00,
2013-01-04 03:30:00,51.0,24.3,30.16,North,351,1.0,1.0,35,0.00,,,0.00,Wunderground v.1.15,2013-01-04 11:30:00,
2013-01-04 03:35:00,51.0,24.3,30.16,West,269,1.0,1.0,35,0.00,,,0.00,Wunderground v.1.15,2013-01-04 11:35:00,
2013-01-04 03:40:00,50.8,24.1,30.16,East,80,0.0,0.0,35,0.00,,,0.00,Wunderground v.1.15,2013-01-04 11:40:00,
2013-01-04 03:45:00,50.6,25.3,30.17,NNW,327,0.0,0.0,37,0.00,,,0.00,Wunderground v.1.15,2013-01-04 11:45:00,
2013-01-04 04:00:00,49.9,24.6,30.16,North,349,0.0,0.0,37,0.00,,,0.00,Wunderground v.1.15,2013-01-04 12:00:00,
2013-01-04 04:10:00,49.7,25.1,30.16,North,11,0.0,0.0,38,0.00,,,0.00,Wunderground v.1.15,2013-01-04 12:10:00,
2013-01-04 04:15:00,49.4,24.8,30.17,NNW,333,0.0,2.0,38,0.00,,,0.00,Wunderground v.1.15,2013-01-04 12:15:00,
2013-01-04 04:20:00,49.4,24.2,30.17,NNW,342,0.0,0.0,37,0.00,,,0.00,Wunderground v.1.15,2013-01-04 12:20:00,
2013-01-04 04:30:00,49.5,24.3,30.17,NE,37,0.0,0.0,37,0.00,,,0.00,Wunderground v.1.15,2013-01-04 12:30:00,
2013-01-04 04:35:00,49.7,23.8,30.17,NE,52,0.0,0.0,36,0.00,,,0.00,Wunderground v.1.15,2013-01-04 12:35:00,
2013-01-04 04:40:00,50.1,23.5,30.17,NNW,330,0.0,1.0,35,0.00,,,0.00,Wunderground v.1.15,2013-01-04 12:40:00,
2013-01-04 04:45:00,50.3,23.7,30.16,NE,56,1.0,3.0,35,0.00,,,0.00,Wunderground v.1.15,2013-01-04 12:45:00,
2013-01-04 04:50:00,50.5,23.8,30.16,ESE,103,1.0,1.0,35,0.00,,,0.00,Wunderground v.1.15,2013-01-04 12:50:00,
2013-01-04 04:55:00,50.7,24.0,30.17,SE,124,1.0,1.0,35,0.00,,,0.00,Wunderground v.1.15,2013-01-04 12:55:00,
2013-01-04 05:05:00,50.7,24.7,30.17,NNW,341,0.0,0.0,36,0.00,,,0.00,Wunderground v.1.15,2013-01-04 13:05:00,
2013-01-04 05:10:00,50.6,24.6,30.17,NNE,25,0.0,0.0,36,0.00,,,0.00,Wunderground v.1.15,2013-01-04 13:10:00,
2013-01-04 05:15:00,50.5,25.2,30.17,North,4,1.0,1.0,37,0.00,,,0.00,Wunderground v.1.15,2013-01-04 13:15:00,
2013-01-04 05:20:00,50.3,24.3,30.17,North,1,1.0,1.0,36,0.00,,,0.00,Wunderground v.1.15,2013-01-04 13:20:00,
2013-01-04 05:25:00,50.2,23.6,30.17,NNE,22,0.0,1.0,35,0.00,,,0.00,Wunderground v.1.15,2013-01-04 13:25:00,
2013-01-04 05:30:00,50.1,24.8,30.17,NNW,330,0.0,1.0,37,0.00,,,0.00,Wunderground v.1.15,2013-01-04 13:30:00,
2013-01-04 05:35:00,50.1,23.5,30.17,North,351,1.0,1.0,35,0.00,,,0.00,Wunderground v.1.15,2013-01-04 13:35:00,
2013-01-04 05:45:00,50.0,24.1,30.16,NW,320,0.0,1.0,36,0.00,,,0.00,Wunderground v.1.15,2013-01-04 13:45:00,
2013-01-04 05:50:00,50.0,23.4,30.17,NNW,340,0.0,0.0,35,0.00,,,0.00,Wunderground v.1.15,2013-01-04 13:50:00,
2013-01-04 06:00:00,50.2,23.6,30.16,NW,319,0.0,0.0,35,0.00,,,0.00,Wunderground v.1.15,2013-01-04 14:00:00,
2013-01-04 06:10:00,50.8,23.4,30.16,NW,322,1.0,1.0,34,0.00,,,0.00,Wunderground v.1.15,2013-01-04 14:10:00,
2013-01-04 06:15:00,51.0,22.9,30.17,WNW,294,1.0,1.0,33,0.00,,,0.00,Wunderground v.1.15,2013-01-04 14:15:00,
2013-01-04 06:25:00,50.9,22.8,30.17,NW,321,0.0,0.0,33,0.00,,,0.00,Wunderground v.1.15,2013-01-04 14:25:00,
2013-01-04 06:30:00,50.9,23.5,30.17,NNW,335,0.0,0.0,34,0.00,,,0.00,Wunderground v.1.15,2013-01-04 14:30:00,
2013-01-04 06:35:00,50.9,23.5,30.18,NNE,13,0.0,0.0,34,0.00,,,0.00,Wunderground v.1.15,2013-01-04 14:35:00,
2013-01-04 06:40:00,50.7,24.0,30.18,WNW,298,0.0,0.0,35,0.00,,,0.00,Wunderground v.1.15,2013-01-04 14:40:00,
2013-01-04 06:45:00,50.5,23.1,30.18,WNW,302,0.0,0.0,34,0.00,,,0.00,Wunderground v.1.15,2013-01-04 14:45:00,
2013-01-04 06:50:00,50.4,23.7,30.18,North,5,0.0,0.0,35,0.00,,,0.00,Wunderground v.1.15,2013-01-04 14:50:00,
2013-01-04 06:55:00,50.2,24.2,30.18,NNW,327,0.0,0.0,36,0.00,,,0.00,Wunderground v.1.15,2013-01-04 14:55:00,
2013-01-04 07:00:00,49.9,24.6,30.19,NNE,20,0.0,0.0,37,0.00,,,0.00,Wunderground v.1.15,2013-01-04 15:00:00,
2013-01-04 07:10:00,49.2,25.3,30.19,NNW,345,0.0,0.0,39,0.00,,,0.00,Wunderground v.1.15,2013-01-04 15:10:00,
2013-01-04 07:15:00,49.0,24.5,30.19,NE,47,0.0,1.0,38,0.00,,,0.00,Wunderground v.1.15,2013-01-04 15:15:00,
2013-01-04 07:20:00,49.0,23.8,30.19,NNE,18,0.0,0.0,37,0.00,,,0.00,Wunderground v.1.15,2013-01-04 15:20:00,
2013-01-04 07:25:00,49.1,23.9,30.19,NNE,17,0.0,0.0,37,0.00,,,0.00,Wunderground v.1.15,2013-01-04 15:25:00,
2013-01-04 07:30:00,49.2,24.6,30.19,North,9,0.0,0.0,38,0.00,,,0.00,Wunderground v.1.15,2013-01-04 15:30:00,
2013-01-04 07:35:00,49.5,24.3,30.19,NNW,336,0.0,1.0,37,0.00,,,0.00,Wunderground v.1.15,2013-01-04 15:35:00,
2013-01-04 07:40:00,49.6,24.4,30.19,NNW,344,0.0,0.0,37,0.00,,,0.00,Wunderground v.1.15,2013-01-04 15:40:00,
2013-01-04 07:45:00,49.9,23.3,30.19,NNW,347,1.0,1.0,35,0.00,,,0.00,Wunderground v.1.15,2013-01-04 15:45:00,
2013-01-04 07:55:00,50.5,23.8,30.19,NNE,12,0.0,0.0,35,0.00,,,0.00,Wunderground v.1.15,2013-01-04 15:55:00,
2013-01-04 08:00:00,51.5,24.0,30.19,NNE,20,0.0,0.0,34,0.00,,,0.00,Wunderground v.1.15,2013-01-04 16:00:00,
2013-01-04 08:10:00,54.3,24.3,30.19,North,354,0.0,1.0,31,0.00,,,0.00,Wunderground v.1.15,2013-01-04 16:10:00,
2013-01-04 08:20:00,56.5,25.4,30.19,North,360,1.0,1.0,30,0.00,,,0.00,Wunderground v.1.15,2013-01-04 16:20:00,
2013-01-04 08:30:00,58.3,28.5,30.19,ENE,69,0.0,0.0,32,0.00,,,0.00,Wunderground v.1.15,2013-01-04 16:30:00,
2013-01-04 08:35:00,58.5,25.5,30.20,NNW,335,0.0,0.0,28,0.00,,,0.00,Wunderground v.1.15,2013-01-04 16:35:00,
2013-01-04 08:40:00,58.7,26.5,30.20,NNE,30,0.0,0.0,29,0.00,,,0.00,Wunderground v.1.15,2013-01-04 16:40:00,
2013-01-04 08:45:00,59.0,27.6,30.20,NNW,337,0.0,0.0,30,0.00,,,0.00,Wunderground v.1.15,2013-01-04 16:45:00,
2013-01-04 08:55:00,59.5,31.1,30.20,East,98,0.0,0.0,34,0.00,,,0.00,Wunderground v.1.15,2013-01-04 16:55:00,
2013-01-04 09:05:00,59.3,33.7,30.21,East,91,1.0,2.0,38,0.00,,,0.00,Wunderground v.1.15,2013-01-04 17:05:00,
2013-01-04 09:10:00,58.6,32.4,30.21,ENE,74,2.0,2.0,37,0.00,,,0.00,Wunderground v.1.15,2013-01-04 17:10:00,
2013-01-04 09:15:00,58.8,34.5,30.21,East,85,2.0,3.0,40,0.00,,,0.00,Wunderground v.1.15,2013-01-04 17:15:00,
2013-01-04 09:25:00,58.4,36.6,30.21,ESE,105,3.0,6.0,44,0.00,,,0.00,Wunderground v.1.15,2013-01-04 17:25:00,
2013-01-04 09:30:00,58.6,35.0,30.21,East,94,3.0,4.0,41,0.00,,,0.00,Wunderground v.1.15,2013-01-04 17:30:00,
2013-01-04 09:35:00,59.1,35.4,30.21,ENE,76,3.0,4.0,41,0.00,,,0.00,Wunderground v.1.15,2013-01-04 17:35:00,
2013-01-04 09:40:00,59.4,36.9,30.21,SE,133,3.0,3.0,43,0.00,,,0.00,Wunderground v.1.15,2013-01-04 17:40:00,
2013-01-04 09:45:00,59.3,35.0,30.21,SE,125,2.0,3.0,40,0.00,,,0.00,Wunderground v.1.15,2013-01-04 17:45:00,
2013-01-04 09:50:00,59.6,34.6,30.21,East,93,2.0,3.0,39,0.00,,,0.00,Wunderground v.1.15,2013-01-04 17:50:00,
2013-01-04 09:55:00,59.9,34.2,30.21,ESE,117,2.0,3.0,38,0.00,,,0.00,Wunderground v.1.15,2013-01-04 17:55:00,
2013-01-04 10:05:00,61.2,36.0,30.21,ESE,105,2.0,3.0,39,0.00,,,0.00,Wunderground v.1.15,2013-01-04 18:05:00,
2013-01-04 10:10:00,62.2,32.0,30.21,SW,234,1.0,1.0,32,0.00,,,0.00,Wunderground v.1.15,2013-01-04 18:10:00,
2013-01-04 10:15:00,62.0,34.7,30.21,WSW,238,0.0,1.0,36,0.00,,,0.00,Wunderground v.1.15,2013-01-04 18:15:00,
2013-01-04 10:20:00,61.5,32.8,30.21,WSW,247,0.0,0.0,34,0.00,,,0.00,Wunderground v.1.15,2013-01-04 18:20:00,
2013-01-04 10:25:00,61.3,32.7,30.21,WSW,257,0.0,0.0,34,0.00,,,0.00,Wunderground v.1.15,2013-01-04 18:25:00,
2013-01-04 10:30:00,60.8,33.7,30.21,NW,307,0.0,0.0,36,0.00,,,0.00,Wunderground v.1.15,2013-01-04 18:30:00,
2013-01-04 10:35:00,61.1,35.3,30.21,WSW,252,0.0,0.0,38,0.00,,,0.00,Wunderground v.1.15,2013-01-04 18:35:00,
2013-01-04 10:40:00,61.1,35.3,30.21,West,265,0.0,0.0,38,0.00,,,0.00,Wunderground v.1.15,2013-01-04 18:40:00,
2013-01-04 10:50:00,60.2,34.5,30.21,WSW,254,1.0,1.0,38,0.00,,,0.00,Wunderground v.1.15,2013-01-04 18:50:00,
2013-01-04 10:55:00,60.3,34.6,30.20,West,260,1.0,1.0,38,0.00,,,0.00,Wunderground v.1.15,2013-01-04 18:55:00,
2013-01-04 11:00:00,60.5,34.1,30.20,WNW,288,1.0,1.0,37,0.00,,,0.00,Wunderground v.1.15,2013-01-04 19:00:00,
2013-01-04 11:10:00,60.0,34.3,30.20,WNW,287,1.0,1.0,38,0.00,,,0.00,Wunderground v.1.15,2013-01-04 19:10:00,
2013-01-04 11:20:00,60.3,35.2,30.19,WNW,287,1.0,1.0,39,0.00,,,0.00,Wunderground v.1.15,2013-01-04 19:20:00,
2013-01-04 11:30:00,61.1,39.0,30.18,ESE,122,1.0,1.0,44,0.00,,,0.00,Wunderground v.1.15,2013-01-04 19:30:00,
2013-01-04 11:35:00,61.6,40.6,30.18,ESE,105,1.0,2.0,46,0.00,,,0.00,Wunderground v.1.15,2013-01-04 19:35:00,
2013-01-04 11:40:00,62.5,40.3,30.18,SE,145,1.0,1.0,44,0.00,,,0.00,Wunderground v.1.15,2013-01-04 19:40:00,
2013-01-04 11:45:00,62.2,37.6,30.18,WSW,245,1.0,1.0,40,0.00,,,0.00,Wunderground v.1.15,2013-01-04 19:45:00,
2013-01-04 11:50:00,62.3,39.5,30.17,WSW,250,0.0,1.0,43,0.00,,,0.00,Wunderground v.1.15,2013-01-04 19:50:00,
2013-01-04 11:55:00,61.5,40.5,30.17,WSW,253,1.0,1.0,46,0.00,,,0.00,Wunderground v.1.15,2013-01-04 19:55:00,
2013-01-04 12:00:00,60.6,41.8,30.17,West,280,1.0,1.0,50,0.00,,,0.00,Wunderground v.1.15,2013-01-04 20:00:00,
2013-01-04 12:10:00,60.2,43.5,30.17,West,262,1.0,1.0,54,0.00,,,0.00,Wunderground v.1.15,2013-01-04 20:10:00,
2013-01-04 12:15:00,60.3,44.1,30.16,SW,224,1.0,1.0,55,0.00,,,0.00,Wunderground v.1.15,2013-01-04 20:15:00,
2013-01-04 12:20:00,61.1,44.3,30.16,South,188,0.0,0.0,54,0.00,,,0.00,Wunderground v.1.15,2013-01-04 20:20:00,
2013-01-04 12:25:00,61.6,44.3,30.15,WSW,252,0.0,0.0,53,0.00,,,0.00,Wunderground v.1.15,2013-01-04 20:25:00,
2013-01-04 12:30:00,62.4,45.5,30.15,SE,145,0.0,1.0,54,0.00,,,0.00,Wunderground v.1.15,2013-01-04 20:30:00,
2013-01-04 12:35:00,62.3,44.9,30.15,WSW,242,1.0,1.0,53,0.00,,,0.00,Wunderground v.1.15,2013-01-04 20:35:00,
2013-01-04 12:40:00,62.3,44.9,30.15,West,280,1.0,1.0,53,0.00,,,0.00,Wunderground v.1.15,2013-01-04 20:40:00,
2013-01-04 12:45:00,62.9,45.0,30.15,West,259,0.0,1.0,52,0.00,,,0.00,Wunderground v.1.15,2013-01-04 20:45:00,
2013-01-04 12:55:00,61.6,44.3,30.14,WSW,252,1.0,1.0,53,0.00,,,0.00,Wunderground v.1.15,2013-01-04 20:55:00,
2013-01-04 13:00:00,62.0,44.2,30.14,WSW,248,1.0,1.0,52,0.00,,,0.00,Wunderground v.1.15,2013-01-04 21:00:00,
2013-01-04 13:10:00,61.6,44.3,30.14,WNW,284,1.0,1.0,53,0.00,,,0.00,Wunderground v.1.15,2013-01-04 21:10:00,
2013-01-04 13:15:00,60.5,43.8,30.14,West,276,1.0,2.0,54,0.00,,,0.00,Wunderground v.1.15,2013-01-04 21:15:00,
2013-01-04 13:25:00,59.9,43.2,30.14,WNW,285,2.0,2.0,54,0.00,,,0.00,Wunderground v.1.15,2013-01-04 21:25:00,
2013-01-04 13:30:00,60.1,44.3,30.13,WSW,251,1.0,1.0,56,0.00,,,0.00,Wunderground v.1.15,2013-01-04 21:30:00,
2013-01-04 13:35:00,60.8,43.1,30.13,West,278,1.0,1.0,52,0.00,,,0.00,Wunderground v.1.15,2013-01-04 21:35:00,
2013-01-04 13:40:00,60.7,42.5,30.13,West,267,1.0,3.0,51,0.00,,,0.00,Wunderground v.1.15,2013-01-04 21:40:00,
2013-01-04 13:45:00,59.4,42.7,30.13,West,277,2.0,4.0,54,0.00,,,0.00,Wunderground v.1.15,2013-01-04 21:45:00,
2013-01-04 13:50:00,58.7,44.0,30.13,West,281,3.0,4.0,58,0.00,,,0.00,Wunderground v.1.15,2013-01-04 21:50:00,
2013-01-04 13:55:00,58.2,43.9,30.13,WNW,290,4.0,4.0,59,0.00,,,0.00,Wunderground v.1.15,2013-01-04 21:55:00,
2013-01-04 14:05:00,58.1,45.1,30.13,WNW,300,3.0,4.0,62,0.00,,,0.00,Wunderground v.1.15,2013-01-04 22:05:00,
2013-01-04 14:10:00,57.8,44.9,30.13,WSW,257,3.0,3.0,62,0.00,,,0.00,Wunderground v.1.15,2013-01-04 22:10:00,
2013-01-04 14:15:00,57.4,44.1,30.13,WSW,242,3.0,4.0,61,0.00,,,0.00,Wunderground v.1.15,2013-01-04 22:15:00,
2013-01-04 14:20:00,57.0,44.1,30.13,WNW,292,4.0,5.0,62,0.00,,,0.00,Wunderground v.1.15,2013-01-04 22:20:00,
2013-01-04 14:30:00,56.3,44.7,30.13,West,267,5.0,5.0,65,0.00,,,0.00,Wunderground v.1.15,2013-01-04 22:30:00,
2013-01-04 14:35:00,56.2,45.0,30.13,WNW,289,5.0,5.0,66,0.00,,,0.00,Wunderground v.1.15,2013-01-04 22:35:00,
2013-01-04 14:40:00,56.2,45.0,30.14,WNW,287,4.0,4.0,66,0.00,,,0.00,Wunderground v.1.15,2013-01-04 22:40:00,
2013-01-04 14:45:00,56.1,44.5,30.14,WNW,298,4.0,4.0,65,0.00,,,0.00,Wunderground v.1.15,2013-01-04 22:45:00,
2013-01-04 14:50:00,56.0,44.4,30.14,WNW,302,4.0,4.0,65,0.00,,,0.00,Wunderground v.1.15,2013-01-04 22:50:00,
2013-01-04 14:55:00,55.9,44.3,30.14,WNW,282,4.0,5.0,65,0.00,,,0.00,Wunderground v.1.15,2013-01-04 22:55:00,
2013-01-04 15:00:00,55.8,44.6,30.14,WNW,284,4.0,4.0,66,0.00,,,0.00,Wunderground v.1.15,2013-01-04 23:00:00,
2013-01-04 15:10:00,55.4,44.6,30.13,WNW,289,3.0,3.0,67,0.00,,,0.00,Wunderground v.1.15,2013-01-04 23:10:00,
2013-01-04 15:15:00,55.2,44.0,30.13,WNW,293,3.0,3.0,66,0.00,,,0.00,Wunderground v.1.15,2013-01-04 23:15:00,
2013-01-04 15:20:00,55.2,44.4,30.13,WNW,293,3.0,3.0,67,0.00,,,0.00,Wunderground v.1.15,2013-01-04 23:20:00,
2013-01-04 15:25:00,55.2,43.2,30.13,NW,307,3.0,4.0,64,0.00,,,0.00,Wunderground v.1.15,2013-01-04 23:25:00,
2013-01-04 15:30:00,55.3,42.1,30.14,WNW,294,3.0,3.0,61,0.00,,,0.00,Wunderground v.1.15,2013-01-04 23:30:00,
2013-01-04 15:40:00,55.6,42.4,30.14,West,281,3.0,3.0,61,0.00,,,0.00,Wunderground v.1.15,2013-01-04 23:40:00,
2013-01-04 15:45:00,55.3,42.1,30.14,West,278,3.0,3.0,61,0.00,,,0.00,Wunderground v.1.15,2013-01-04 23:45:00,
2013-01-04 15:50:00,55.3,42.9,30.14,West,276,3.0,3.0,63,0.00,,,0.00,Wunderground v.1.15,2013-01-04 23:50:00,
2013-01-04 15:55:00,55.3,42.5,30.14,West,278,2.0,3.0,62,0.00,,,0.00,Wunderground v.1.15,2013-01-04 23:55:00,
2013-01-04 16:00:00,55.4,43.0,30.14,WNW,284,2.0,2.0,63,0.00,,,0.00,Wunderground v.1.15,2013-01-05 00:00:00,
2013-01-04 16:10:00,56.6,42.4,30.14,East,89,1.0,1.0,59,0.00,,,0.00,Wunderground v.1.15,2013-01-05 00:10:00,
2013-01-04 16:20:00,56.4,41.3,30.14,ENE,77,1.0,1.0,57,0.00,,,0.00,Wunderground v.1.15,2013-01-05 00:20:00,
2013-01-04 16:25:00,56.6,40.6,30.14,ENE,78,1.0,1.0,55,0.00,,,0.00,Wunderground v.1.15,2013-01-05 00:25:00,
2013-01-04 16:35:00,56.5,41.9,30.14,ENE,68,0.0,0.0,58,0.00,,,0.00,Wunderground v.1.15,2013-01-05 00:35:00,
2013-01-04 16:40:00,56.4,43.5,30.14,ENE,68,0.0,0.0,62,0.00,,,0.00,Wunderground v.1.15,2013-01-05 00:40:00,
2013-01-04 16:45:00,56.2,41.6,30.14,ENE,68,0.0,0.0,58,0.00,,,0.00,Wunderground v.1.15,2013-01-05 00:45:00,
2013-01-04 16:50:00,55.9,40.9,30.14,ENE,68,0.0,0.0,57,0.00,,,0.00,Wunderground v.1.15,2013-01-05 00:50:00,
2013-01-04 16:55:00,55.3,39.4,30.14,ENE,68,0.0,1.0,55,0.00,,,0.00,Wunderground v.1.15,2013-01-05 00:55:00,
2013-01-04 17:05:00,54.0,38.6,30.14,ENE,61,0.0,0.0,56,0.00,,,0.00,Wunderground v.1.15,2013-01-05 01:05:00,
2013-01-04 17:10:00,53.7,38.8,30.15,ENE,76,0.0,1.0,57,0.00,,,0.00,Wunderground v.1.15,2013-01-05 01:10:00,
2013-01-04 17:15:00,53.3,38.4,30.15,East,80,0.0,2.0,57,0.00,,,0.00,Wunderground v.1.15,2013-01-05 01:15:00,
2013-01-04 17:20:00,53.0,38.2,30.15,ENE,72,0.0,0.0,57,0.00,,,0.00,Wunderground v.1.15,2013-01-05 01:20:00,
2013-01-04 17:30:00,52.9,35.7,30.15,NNE,16,0.0,0.0,52,0.00,,,0.00,Wunderground v.1.15,2013-01-05 01:30:00,
2013-01-04 17:35:00,52.8,35.6,30.15,NNE,15,0.0,0.0,52,0.00,,,0.00,Wunderground v.1.15,2013-01-05 01:35:00,
2013-01-04 17:40:00,52.4,35.3,30.15,NW,306,1.0,1.0,52,0.00,,,0.00,Wunderground v.1.15,2013-01-05 01:40:00,
2013-01-04 17:45:00,52.0,34.9,30.16,NW,306,1.0,1.0,52,0.00,,,0.00,Wunderground v.1.15,2013-01-05 01:45:00,
2013-01-04 17:50:00,51.7,35.1,30.16,WSW,256,1.0,1.0,53,0.00,,,0.00,Wunderground v.1.15,2013-01-05 01:50:00,
2013-01-04 17:55:00,51.4,35.8,30.16,WSW,256,1.0,1.0,55,0.00,,,0.00,Wunderground v.1.15,2013-01-05 01:55:00,
2013-01-04 18:00:00,50.9,35.3,30.16,NW,322,1.0,2.0,55,0.00,,,0.00,Wunderground v.1.15,2013-01-05 02:00:00,
2013-01-04 18:10:00,50.4,35.3,30.16,NW,324,1.0,1.0,56,0.00,,,0.00,Wunderground v.1.15,2013-01-05 02:10:00,
2013-01-04 18:15:00,50.3,34.7,30.16,NNW,327,1.0,1.0,55,0.00,,,0.00,Wunderground v.1.15,2013-01-05 02:15:00,
2013-01-04 18:20:00,50.1,35.4,30.16,North,360,0.0,1.0,57,0.00,,,0.00,Wunderground v.1.15,2013-01-05 02:20:00,
2013-01-04 18:25:00,49.9,34.4,30.16,North,351,0.0,1.0,55,0.00,,,0.00,Wunderground v.1.15,2013-01-05 02:25:00,
2013-01-04 18:35:00,49.7,34.2,30.17,North,349,0.0,1.0,55,0.00,,,0.00,Wunderground v.1.15,2013-01-05 02:35:00,
2013-01-04 18:40:00,49.8,33.8,30.17,NW,312,1.0,1.0,54,0.00,,,0.00,Wunderground v.1.15,2013-01-05 02:40:00,
2013-01-04 18:45:00,50.1,33.6,30.17,NW,316,1.0,3.0,53,0.00,,,0.00,Wunderground v.1.15,2013-01-05 02:45:00,
2013-01-04 18:55:00,50.2,34.6,30.17,NW,319,1.0,1.0,55,0.00,,,0.00,Wunderground v.1.15,2013-01-05 02:55:00,
2013-01-04 19:00:00,49.9,33.9,30.16,NW,322,1.0,1.0,54,0.00,,,0.00,Wunderground v.1.15,2013-01-05 03:00:00,
2013-01-04 19:10:00,50.0,32.1,30.17,South,172,0.0,1.0,50,0.00,,,0.00,Wunderground v.1.15,2013-01-05 03:10:00,
2013-01-04 19:15:00,49.5,35.8,30.17,WNW,295,1.0,3.0,59,0.00,,,0.00,Wunderground v.1.15,2013-01-05 03:15:00,
2013-01-04 19:20:00,48.2,36.6,30.17,WNW,302,3.0,4.0,64,0.00,,,0.00,Wunderground v.1.15,2013-01-05 03:20:00,
2013-01-04 19:25:00,47.6,37.9,30.17,WNW,302,4.0,4.0,69,0.00,,,0.00,Wunderground v.1.15,2013-01-05 03:25:00,
2013-01-04 19:30:00,47.0,39.5,30.17,WNW,297,4.0,4.0,75,0.00,,,0.00,Wunderground v.1.15,2013-01-05 03:30:00,
2013-01-04 19:40:00,46.4,40.2,30.18,WNW,295,3.0,3.0,79,0.00,,,0.00,Wunderground v.1.15,2013-01-05 03:40:00,
2013-01-04 19:45:00,46.2,40.4,30.18,NW,308,3.0,3.0,80,0.00,,,0.00,Wunderground v.1.15,2013-01-05 03:45:00,
2013-01-04 19:50:00,45.9,40.1,30.18,WNW,302,3.0,3.0,80,0.00,,,0.00,Wunderground v.1.15,2013-01-05 03:50:00,
2013-01-04 19:55:00,45.7,40.2,30.18,NW,305,3.0,3.0,81,0.00,,,0.00,Wunderground v.1.15,2013-01-05 03:55:00,
2013-01-04 20:00:00,45.5,40.0,30.19,NW,313,3.0,3.0,81,0.00,,,0.00,Wunderground v.1.15,2013-01-05 04:00:00,
2013-01-04 20:10:00,45.3,40.7,30.19,NW,318,2.0,4.0,84,0.00,,,0.00,Wunderground v.1.15,2013-01-05 04:10:00,
2013-01-04 20:15:00,45.1,40.2,30.19,NW,311,2.0,4.0,83,0.00,,,0.00,Wunderground v.1.15,2013-01-05 04:15:00,
2013-01-04 20:20:00,44.9,40.4,30.19,NW,311,1.0,1.0,84,0.00,,,0.00,Wunderground v.1.15,2013-01-05 04:20:00,
2013-01-04 20:30:00,44.6,39.8,30.19,NW,311,0.0,0.0,83,0.00,,,0.00,Wunderground v.1.15,2013-01-05 04:30:00,
2013-01-04 20:35:00,44.5,39.3,30.19,NW,311,0.0,0.0,82,0.00,,,0.00,Wunderground v.1.15,2013-01-05 04:35:00,
2013-01-04 20:45:00,44.3,39.5,30.19,NW,311,0.0,1.0,83,0.00,,,0.00,Wunderground v.1.15,2013-01-05 04:45:00,
2013-01-04 20:50:00,44.1,39.0,30.19,NW,311,0.0,0.0,82,0.00,,,0.00,Wunderground v.1.15,2013-01-05 04:50:00,
2013-01-04 20:55:00,43.9,38.1,30.19,NW,311,0.0,0.0,80,0.00,,,0.00,Wunderground v.1.15,2013-01-05 04:55:00,
2013-01-04 21:00:00,43.8,36.7,30.19,North,359,1.0,1.0,76,0.00,,,0.00,Wunderground v.1.15,2013-01-05 05:00:00,
2013-01-04 21:10:00,44.4,38.0,30.20,NW,319,1.0,1.0,78,0.00,,,0.00,Wunderground v.1.15,2013-01-05 05:10:00,
2013-01-04 21:20:00,44.3,38.5,30.20,NW,319,0.0,0.0,80,0.00,,,0.00,Wunderground v.1.15,2013-01-05 05:20:00,
2013-01-04 21:25:00,44.2,37.4,30.20,NW,319,0.0,0.0,77,0.00,,,0.00,Wunderground v.1.15,2013-01-05 05:25:00,
2013-01-04 21:30:00,44.1,37.0,30.20,NW,319,0.0,0.0,76,0.00,,,0.00,Wunderground v.1.15,2013-01-05 05:30:00,
2013-01-04 21:35:00,44.0,36.9,30.20,North,349,0.0,0.0,76,0.00,,,0.00,Wunderground v.1.15,2013-01-05 05:35:00,
2013-01-04 21:40:00,43.8,36.4,30.19,North,349,0.0,0.0,75,0.00,,,0.00,Wunderground v.1.15,2013-01-05 05:40:00,
2013-01-04 21:45:00,43.8,36.7,30.19,NNE,19,0.0,0.0,76,0.00,,,0.00,Wunderground v.1.15,2013-01-05 05:45:00,
2013-01-04 21:55:00,44.3,36.2,30.20,WNW,297,1.0,2.0,73,0.00,,,0.00,Wunderground v.1.15,2013-01-05 05:55:00,
2013-01-04 22:00:00,44.7,37.9,30.20,WNW,290,2.0,2.0,77,0.00,,,0.00,Wunderground v.1.15,2013-01-05 06:00:00,
2013-01-04 22:10:00,45.1,39.3,30.20,WNW,302,2.0,2.0,80,0.00,,,0.00,Wunderground v.1.15,2013-01-05 06:10:00,
2013-01-04 22:15:00,45.2,39.7,30.20,WNW,301,1.0,2.0,81,0.00,,,0.00,Wunderground v.1.15,2013-01-05 06:15:00,
2013-01-04 22:25:00,44.2,37.4,30.21,NNE,25,0.0,0.0,77,0.00,,,0.00,Wunderground v.1.15,2013-01-05 06:25:00,
2013-01-04 22:30:00,44.0,37.6,30.21,NNE,25,0.0,0.0,78,0.00,,,0.00,Wunderground v.1.15,2013-01-05 06:30:00,
2013-01-04 22:40:00,44.2,38.7,30.21,NNE,26,0.0,0.0,81,0.00,,,0.00,Wunderground v.1.15,2013-01-05 06:40:00,
2013-01-04 22:45:00,44.1,38.3,30.21,NNE,25,0.0,0.0,80,0.00,,,0.00,Wunderground v.1.15,2013-01-05 06:45:00,
2013-01-04 22:50:00,43.9,38.8,30.21,NNE,25,0.0,0.0,82,0.00,,,0.00,Wunderground v.1.15,2013-01-05 06:50:00,
2013-01-04 22:55:00,43.6,38.2,30.21,NNE,26,0.0,0.0,81,0.00,,,0.00,Wunderground v.1.15,2013-01-05 06:55:00,
2013-01-04 23:05:00,43.5,38.1,30.21,NNE,25,0.0,1.0,81,0.00,,,0.00,Wunderground v.1.15,2013-01-05 07:05:00,
2013-01-04 23:15:00,43.3,37.2,30.21,NNE,21,0.0,0.0,79,0.00,,,0.00,Wunderground v.1.15,2013-01-05 07:15:00,
2013-01-04 23:20:00,43.2,37.1,30.21,NNE,21,0.0,0.0,79,0.00,,,0.00,Wunderground v.1.15,2013-01-05 07:20:00,
2013-01-04 23:25:00,43.1,37.0,30.21,NNE,21,0.0,0.0,79,0.00,,,0.00,Wunderground v.1.15,2013-01-05 07:25:00,
2013-01-04 23:30:00,42.9,36.8,30.21,NNE,22,0.0,0.0,79,0.00,,,0.00,Wunderground v.1.15,2013-01-05 07:30:00,
2013-01-04 23:35:00,42.8,37.1,30.21,NNE,22,0.0,0.0,80,0.00,,,0.00,Wunderground v.1.15,2013-01-05 07:35:00,
2013-01-04 23:40:00,42.6,37.2,30.20,NNE,22,0.0,0.0,81,0.00,,,0.00,Wunderground v.1.15,2013-01-05 07:40:00,
2013-01-04 23:45:00,42.8,37.1,30.20,NNE,18,0.0,0.0,80,0.00,,,0.00,Wunderground v.1.15,2013-01-05 07:45:00,
2013-01-04 23:55:00,43.1,37.0,30.21,NW,326,0.0,3.0,79,0.00,,,0.00,Wunderground v.1.15,2013-01-05 07:55:00,